Location: Cañada de la Miga
(34.7595°N, 106.2317°W)
Time: 06:10:51
(UTC+00:00)

Transit 2A - All Passes

Search period start: 03 December 2021 00:00
Search period end: 13 December 2021 00:00
Orbit: 591 x 967 km, 66.7° (Epoch: 02 December)

Date Brightness Start Highest point End Pass type
(mag) Time Alt. Az. Time Alt. Az. Time Alt. Az.
03 Dec - 05:51:58 10° SSE 05:56:11 24° ESE 06:00:42 10° NE night (unlit)
03 Dec - 07:33:47 10° SW 07:39:00 44° WNW 07:44:46 10° NNE night (unlit)
03 Dec - 14:42:27 10° NNE 14:45:48 14° NE 14:49:05 10° ENE daylight
03 Dec - 16:23:42 10° NNW 16:30:05 81° ENE 16:36:04 10° SSE daylight
03 Dec - 18:09:38 10° WNW 18:12:25 13° W 18:15:09 10° SW daylight
04 Dec - 05:19:11 10° SE 05:22:15 15° ESE 05:25:27 10° ENE night (unlit)
04 Dec - 06:59:17 10° SW 07:04:40 64° WNW 07:10:41 10° NNE night (unlit)
04 Dec - 08:47:51 10° NW 08:49:14 11° NW 08:50:40 10° NNW night (unlit)
04 Dec - 14:10:11 10° NNE 14:11:07 10° NE 14:12:03 10° NE daylight
04 Dec - 15:49:33 10° NNW 15:55:49 56° ENE 16:01:41 10° SE daylight
04 Dec - 17:34:04 10° WNW 17:38:30 21° WSW 17:42:45 10° SSW daylight
05 Dec - 06:25:00 10° SSW 06:30:26 87° ESE 06:36:30 10° NNE night (unlit)
05 Dec - 08:11:18 10° W 08:14:35 15° NW 08:18:00 10° N night (unlit)
05 Dec - 15:15:31 10° NNW 15:21:28 40° ENE 15:27:04 10° SE daylight
05 Dec - 16:59:08 10° NW 17:04:31 31° WSW 17:09:36 10° SSW daylight
06 Dec - 05:50:58 10° S 05:56:16 59° ESE 06:02:10 10° NE night (unlit)
06 Dec - 07:35:46 10° W 07:40:00 21° NW 07:44:31 10° N night (unlit)
06 Dec - 14:41:36 10° N 14:47:02 29° NE 14:52:12 10° ESE daylight
06 Dec - 16:24:31 10° NW 16:30:28 45° WSW 16:36:02 10° S daylight
07 Dec - 05:17:12 10° S 05:22:12 39° ESE 05:27:41 10° NE night (unlit)
07 Dec - 07:00:39 10° WSW 07:05:30 29° NW 07:10:46 10° N night (unlit)
07 Dec - 14:07:51 10° N 14:12:32 21° NE 14:17:02 10° E daylight
07 Dec - 15:50:05 10° NNW 15:56:21 66° WSW 16:02:11 10° SSE daylight
08 Dec - 04:43:45 10° SSE 04:48:11 26° ESE 04:52:58 10° NE night (unlit)
08 Dec - 06:25:51 10° SW 06:31:05 41° WNW 06:36:50 10° NNE night (unlit)
08 Dec - 13:34:22 10° N 13:37:57 15° NE 13:41:26 10° E visible
08 Dec - 15:15:48 10° NNW 15:22:10 86° ENE 15:28:05 10° SSE daylight
08 Dec - 17:02:15 10° W 17:04:26 12° W 17:06:34 10° WSW daylight
09 Dec - 04:10:49 10° SE 04:14:14 17° ESE 04:17:51 10° ENE night (unlit)
09 Dec - 05:51:18 10° SW 05:56:44 60° WNW 06:02:47 10° NNE night (unlit)
09 Dec - 07:40:36 10° NW 07:41:24 10° NW 07:42:10 10° NNW night (unlit)
09 Dec - 13:01:40 10° NNE 13:03:17 11° NE 13:04:53 10° NE visible
09 Dec - 14:41:38 10° NNW 14:47:54 60° ENE 14:53:45 10° SE daylight
09 Dec - 16:26:22 10° WNW 16:30:31 19° WSW 16:34:29 10° SW daylight
10 Dec - 03:39:29 10° ESE 03:40:20 10° E 03:41:12 10° E night (unlit)
10 Dec - 05:16:59 10° SSW 05:22:29 87° WNW 05:28:36 10° NNE night (unlit)
10 Dec - 07:03:36 10° WNW 07:06:43 14° NW 07:09:57 10° NNW night (unlit)
10 Dec - 14:07:35 10° NNW 14:13:34 42° ENE 14:19:11 10° SE daylight
10 Dec - 15:51:21 10° NW 15:56:33 28° WSW 16:01:26 10° SSW daylight
11 Dec - 04:42:53 10° SSW 04:48:18 64° ESE 04:54:18 10° NNE night (unlit)
11 Dec - 06:27:58 10° W 06:32:07 20° NW 06:36:32 10° N night (unlit)
11 Dec - 13:33:38 10° N 13:39:09 30° NE 13:44:22 10° ESE visible
11 Dec - 15:16:41 10° NW 15:22:31 42° WSW 15:27:56 10° S daylight
12 Dec - 04:09:04 10° S 04:14:12 42° ESE 04:19:51 10° NE night (unlit)
12 Dec - 05:52:47 10° WSW 05:57:36 28° NW 06:02:48 10° N night (unlit)
12 Dec - 12:59:51 10° N 13:04:39 22° NE 13:09:16 10° E visible
12 Dec - 14:42:13 10° NNW 14:48:24 62° WSW 14:54:09 10° SSE daylight
